This demonstration page uses our WeatherBlox Daily Observations layout. Learn more.

Left ArrowRight Arrow

39.08367, -84.50855

Hourly Observations for January 12, 2015

Temp ( °F °C ) Dew Point ( °F °C ) Humidity (%) Winds ( mph kmh ) Pressure ( in mb ) Visibility ( mi km ) Precip ( " mm )
12:53 am 00:53 Cloudy with Light Rain 33 0.6 33 0.6 100 100 Calm 30.31 1026 4 6.43736 0.04 1.016
1:53 am 01:53 Cloudy with Light Rain 33 0.6 33 0.6 100 100 Calm 30.29 1026 2.5 4.02335 0.06 1.524
2:03 am 02:03 Cloudy with Light Rain 34 1 34 1 100 100 Calm 30.3 1026 1.5 2.41401 0 0
2:25 am 02:25 Cloudy with Light Rain 33 0.6 33 0.6 100 100 Calm 30.3 1026 2.5 4.02335 0.01 0.254
2:41 am 02:41 Cloudy with Light Rain 33 0.6 33 0.6 100 100 Calm 30.3 1026 3 4.82802 0.01 0.254
2:49 am 02:49 Cloudy with Light Rain 34 1 34 1 100 100 Calm 30.3 1026 2.5 4.02335 0.01 0.254
2:53 am 02:53 Cloudy with Light Rain 33 0.6 33 0.6 100 100 Calm 30.28 1026 2.5 4.02335 0.01 0.254
3:07 am 03:07 Cloudy with Light Rain 33 0.6 33 0.6 100 100 Calm 30.3 1026 3 4.82802 0 0.0254
3:33 am 03:33 Cloudy with Light Rain 33 0.6 33 0.6 100 100 Calm 30.3 1026 1.75 2.816345 0.01 0.254
3:43 am 03:43 Cloudy with Light Rain 33 0.6 33 0.6 100 100 Calm 30.3 1026 1.5 2.41401 0.01 0.254
3:53 am 03:53 Cloudy with Light Rain 33 0.6 33 0.6 100 100 Calm 30.28 1025 1.5 2.41401 0.02 0.508
4:22 am 04:22 Cloudy with Light Rain 33 0.6 33 0.6 100 100 Calm 30.3 1026 0.75 1.207005 0 0.0254
4:49 am 04:49 Cloudy with Light Rain 34 1 34 1 100 100 Calm 30.27 1025 0.5 0.80467 0.01 0.254
4:53 am 04:53 Cloudy with Light Rain 33 0.6 33 0.6 100 100 Calm 30.25 1024 0.5 0.80467 0.01 0.254
5:10 am 05:10 Cloudy with Mist and Fog 34 1 34 1 100 100 Calm 30.27 1025 1 1.60934 0 0
5:53 am 05:53 Cloudy with Mist and Fog 33 0.6 33 0.6 100 100 Calm 30.26 1025 1.25 2.011675 0 0.0254
6:53 am 06:53 Cloudy with Mist and Fog 33 0.6 33 0.6 100 100 Calm 30.25 1025 1 1.60934 0.01 0.254
7:29 am 07:29 Cloudy with Mist and Fog 32 0 32 0 100 100 E 3 6 30.27 1025 0.75 1.207005 0 0
7:41 am 07:41 Cloudy with Mist and Fog 33 0.6 33 0.6 100 100 Calm 30.27 1025 1 1.60934 0 0
7:53 am 07:53 Cloudy with Mist and Fog 33 0.6 33 0.6 100 100 Calm 30.27 1025 1 1.60934 0 0
8:33 am 08:33 Cloudy with Light Rain 33 0.6 33 0.6 100 100 ESE 3 6 30.27 1025 0.75 1.207005 0.01 0.254
8:53 am 08:53 Cloudy with Light Rain 33 0.6 33 0.6 100 100 Calm 30.27 1025 0.75 1.207005 0.01 0.254
9:03 am 09:03 Cloudy with Mist and Fog 34 1 34 1 100 100 Calm 30.3 1026 1 1.60934 0 0
9:08 am 09:08 Cloudy with Light Rain 34 1 34 1 100 100 Calm 30.3 1026 0.75 1.207005 0 0
9:18 am 09:18 Cloudy with Light Rain 34 1.1 34 1.1 100 100 Calm 30.3 1026 0.75 1.207005 0 0.0254
9:20 am 09:20 Cloudy with Light Rain 34 1.1 34 1.1 100 100 Calm 30.3 1026 0.75 1.207005 0 0.0254
9:27 am 09:27 Cloudy with Light Rain 34 1.1 34 1.1 100 100 Calm 30.3 1026 1 1.60934 0.01 0.254
9:35 am 09:35 Cloudy with Light Rain 35 1.7 35 1.7 100 100 Calm 30.3 1026 1.25 2.011675 0.01 0.254
9:53 am 09:53 Cloudy with Light Rain 35 1.7 35 1.7 100 100 E 3 6 30.28 1025 1.5 2.41401 0.02 0.508
9:57 am 09:57 Cloudy with Light Rain 35 1.7 35 1.7 100 100 Calm 30.3 1026 1.25 2.011675 0 0.0254
10:14 am 10:14 Cloudy with Light Rain 36 2 36 2 100 100 Calm 30.3 1026 2.5 4.02335 0 0
10:33 am 10:33 Cloudy with Mist and Fog 36 2.2 35 1.7 97 97 Calm 30.3 1026 3 4.82802 0.01 0.254
10:40 am 10:40 Cloudy with Light Rain 36 2 36 2 100 100 Calm 30.3 1026 2.5 4.02335 0 0
10:53 am 10:53 Cloudy with Light Rain 36 2 36 2 100 100 Calm 30.3 1026 2.5 4.02335 0 0
10:55 am 10:55 Cloudy with Light Rain 36 2.2 35 1.7 97 97 Calm 30.3 1026 3 4.82802 0 0.0254
11:04 am 11:04 Cloudy with Light Rain 36 2 36 2 100 100 Calm 30.3 1026 3 4.82802 0 0
11:18 am 11:18 Cloudy with Light Rain 36 2.2 36 2.2 100 100 Calm 30.3 1026 2 3.21868 0 0.0254
11:34 am 11:34 Cloudy with Light Rain 37 3 36 2 93 93 VRB 3 6 30.27 1025 2 3.21868 0 0
11:51 am 11:51 Cloudy with Mist and Fog 37 3 36 2 93 93 N 6 9 30.27 1025 5 8.0467 0.01 0.254
11:53 am 11:53 Cloudy with Mist and Fog 37 2.8 35 1.7 93 93 N 5 7 30.28 1025 4 6.43736 0.01 0.254
12:53 pm 12:53 Cloudy with Light Rain 37 2.8 34 1.1 89 89 NNE 13 20 30.27 1025 4 6.43736 0 0.0254
1:53 pm 13:53 Cloudy 36 2.2 33 0.6 89 89 N 10 17 30.28 1025 10 16.0934 0 0.0254
2:00 pm 14:00 Cloudy 37 3 34 1 87 87 N 10 17 30.27 1025 9 14.48406 0 0
2:19 pm 14:19 Cloudy 36 2.2 33 0.6 89 89 N 12 19 30.3 1026 8 12.87472 0 0
2:51 pm 14:51 Cloudy 36 2 32 0 87 87 N 8 13 30.33 1027 10 16.0934 0 0
2:53 pm 14:53 Cloudy 36 2.2 32 0 86 86 N 9 15 30.3 1026 10 16.0934 0 0
3:53 pm 15:53 Cloudy 36 2.2 31 -0.6 82 82 N 13 20 30.32 1027 10 16.0934 0 0
4:53 pm 16:53 Cloudy 34 1.1 29 -1.7 82 82 N 15 24 30.36 1028 7 11.26538 0 0
5:53 pm 17:53 Cloudy 33 0.6 28 -2.2 82 82 N 9 15 30.39 1029 8 12.87472 0 0
6:53 pm 18:53 Cloudy 32 0 27 -2.8 82 82 N 12 19 30.43 1030 7 11.26538 0 0
7:53 pm 19:53 Cloudy 32 0 25 -3.9 75 75 NNE 14 22 30.45 1031 8 12.87472 0 0
8:53 pm 20:53 Cloudy 30 -1.1 22 -5.6 72 72 NNE 16 26 30.48 1032 9 14.48406 0 0
9:53 pm 21:53 Cloudy 30 -1.1 21 -6.1 69 69 N 13 20 30.5 1033 10 16.0934 0 0
10:01 pm 22:01 Cloudy 30 -1.1 22 -5.6 72 72 NNE 16 26 30.53 1034 10 16.0934 0 0
10:53 pm 22:53 Cloudy 29 -1.7 22 -5.6 75 75 NNE 16 26 30.52 1033 10 16.0934 0 0
11:53 pm 23:53 Cloudy 27 -2.8 20 -6.7 75 75 N 13 20 30.53 1034 10 16.0934 0 0

Powered by AerisWeather